Location: Wien
(48.2082°N, 16.3738°E)
Time: 08:13:51
(UTC+02:00)

UNISAT 6 - Pass Details

Date: 29 April 2024
Orbit: 593 x 668 km, 97.7° (Epoch: 20 May)

Event Time Altitude Azimuth Distance (km) Brightness Sun altitude
Rises 03:16:14 0° 116° (ESE) 2,890 ? -19.5°
Reaches altitude 10° 03:19:17 10° 93° (E) 1,974 ? -19.2°
Maximum altitude 03:21:36 15° 60° (ENE) 1,688 ? -18.9°
Drops below altitude 10° 03:23:54 10° 27° (NNE) 1,961 ? -18.7°
Sets 03:26:55 0° 3° (N) 2,858 ? -18.4°
